Location: Unspecified
(0.0000°N, 0.0000°E)
Time: 14:16:42
(UTC+00:00)

Hubble Space Telescope - Pass Details

Date: 10 April 2021
Orbit: 535 x 539 km, 28.5° (Epoch: 16 April)

Event Time Altitude Azimuth Distance (km) Brightness Sun altitude
Rises 19:04:37 0° 212° (SSW) 2,674 4.6 -15.7°
Reaches altitude 10° 19:07:42 10° 188° (S) 1,782 3.4 -16.5°
Enters shadow 19:09:44 15° 158° (SSE) 1,500 2.7 -17.0°
